Camarillo, CA

10:59 AM PST on January 21, 2018 (GMT -0800)
Camarillo

Weather History for KCMA - September, 2014

Change the Weather History Date:

Sunday, September 21, 2014

  Actual Average Record
Temperature  
Mean Temperature 72 °F 66 °F  
Max Temperature 81 °F 76 °F 102 °F (1939)
Min Temperature 63 °F 56 °F 43 °F (1941)
Degree Days  
Heating Degree Days 0 1  
Month to date heating degree days 0 3  
Since 1 July heating degree days 0 18  
Cooling Degree Days 7 2  
Month to date cooling degree days 199 55  
Year to date cooling degree days 836 267  
Growing Degree Days 23 (Base 50)    
Moisture  
Dew Point 60 °F    
Average Humidity 66    
Maximum Humidity 81    
Minimum Humidity 51    
Precipitation  
Precipitation 0.00 in 0.01 in 0.14 in (2007)
Month to date precipitation T 0.10  
Year to date precipitation 4.22 11.14  
Since 1 July precipitation 0.03  
Sea Level Pressure  
Sea Level Pressure 29.98 in    
Wind  
Wind Speed 5 mph (WNW)    
Max Wind Speed 14 mph    
Max Gust Speed 18 mph    
Visibility 10 miles    
Events      
T = Trace of Precipitation, MM = Missing Value Source: NWS Daily Summary

Daily Weather History Graph

Daily Weather History Graph

Search for Another Location

Airport or City:

Trip Planner

Search our weather history database for the weather conditions in past years. The results will help you decide how hot, cold, wet, or windy it might be!

Date:

Astronomy

Sep. 21, 2014 Rise Set
Actual Time 6:43 AM PDT 6:54 PM PDT
Civil Twilight 6:18 AM PDT 7:19 PM PDT
Nautical Twilight 5:49 AM PDT 7:48 PM PDT
Astronomical Twilight 5:19 AM PDT 8:18 PM PDT
Moon 4:26 AM PDT 5:29 PM PDT
Length of Visible Light 13h 00m
Length of Day
12h 10m
Waning Crescent, 6% of the Moon is Illuminated
Sep 21
Waning Crescent
Sep 23
New
Oct 1
First Quarter
Oct 8
Full
Oct 15
Last Quarter

Hourly Weather History & Observations

Time (PDT) Temp. Heat Index Dew Point Humidity Pressure Visibility Wind Dir Wind Speed Gust Speed Precip Events Conditions
12:55 AM 69.1 °F - 61.0 °F 75% 29.96 in 10.0 mi Calm Calm - N/A   Overcast
1:55 AM 69.1 °F - 61.0 °F 75% 29.96 in 10.0 mi East 5.8 mph - N/A   Overcast
2:55 AM 68.0 °F - 60.1 °F 76% 29.96 in 10.0 mi ENE 4.6 mph - N/A   Overcast
3:55 AM 66.9 °F - 60.1 °F 79% 29.96 in 8.0 mi NNW 3.5 mph - N/A   Overcast
4:55 AM 66.9 °F - 60.1 °F 79% 29.96 in 7.0 mi NNW 5.8 mph - N/A   Overcast
5:26 AM 66.0 °F - 60.1 °F 81% 29.94 in 7.0 mi Calm Calm - N/A   Overcast
5:55 AM 66.9 °F - 60.1 °F 79% 29.97 in 8.0 mi WNW 6.9 mph - N/A   Overcast
6:55 AM 66.0 °F - 60.1 °F 81% 30.00 in 7.0 mi WNW 4.6 mph - N/A   Overcast
8:55 AM 70.0 °F - 60.1 °F 71% 30.03 in 9.0 mi North 3.5 mph - N/A   Overcast
9:55 AM 71.1 °F - 60.1 °F 68% 30.03 in 10.0 mi Calm Calm - N/A   Overcast
10:55 AM 73.9 °F - 60.1 °F 62% 30.02 in 10.0 mi Calm Calm - N/A   Overcast
11:38 AM 77.0 °F - 60.1 °F 56% 29.99 in 10.0 mi Variable 5.8 mph - N/A   Scattered Clouds
11:55 AM 78.1 °F - 60.1 °F 54% 30.01 in 10.0 mi Calm Calm - N/A   Partly Cloudy
12:37 PM 80.1 °F 80.9 °F 60.1 °F 50% 29.98 in 10.0 mi WSW 9.2 mph - N/A   Mostly Cloudy
12:55 PM 79.0 °F - 60.1 °F 52% 29.99 in 10.0 mi Variable 6.9 mph - N/A   Scattered Clouds
1:55 PM 79.0 °F - 59.0 °F 50% 29.97 in 10.0 mi Variable 5.8 mph - N/A   Clear
2:55 PM 79.0 °F - 60.1 °F 52% 29.97 in 10.0 mi West 9.2 mph 18.4 mph N/A   Clear
3:55 PM 80.1 °F 80.9 °F 60.1 °F 50% 29.96 in 10.0 mi West 11.5 mph - N/A   Clear
4:55 PM 78.1 °F - 60.1 °F 54% 29.95 in 10.0 mi WSW 9.2 mph - N/A   Clear
5:55 PM 73.0 °F - 61.0 °F 66% 29.96 in 10.0 mi West 10.4 mph - N/A   Clear
6:55 PM 71.1 °F - 60.1 °F 68% 29.96 in 10.0 mi West 6.9 mph - N/A   Clear
7:55 PM 69.1 °F - 60.1 °F 73% 29.97 in 10.0 mi West 4.6 mph - N/A   Clear
8:55 PM 69.1 °F - 60.1 °F 73% 29.98 in 10.0 mi SE 3.5 mph - N/A   Clear
9:55 PM 69.1 °F - 60.1 °F 73% 29.97 in 10.0 mi Calm Calm - N/A   Clear
10:55 PM 66.9 °F - 57.9 °F 73% 29.97 in 10.0 mi ENE 3.5 mph - N/A   Clear
11:55 PM 66.0 °F - 57.9 °F 75% 29.97 in 10.0 mi Calm Calm - N/A   Clear